Language: 


Des rapports , des résumés tant et plus, au choix de chacun....


Données statistiques de la station
Quotidien Rapport Juillet 11, 2017 Unités:  Métrique    Anglais   les deux
« Précédent Jour
Suivant Jour »
Quotidien Hebdomadaire Mensuel Annuel Actuel
  Haut: Bas: Moyen:
Température: 22.2 °C 14.5 °C 17.3 °C
Pt de rosée: 20.0 °C 13.0 °C 15.9 °C
Humidité: 97 % 71 % 91 %
Vitesse du vent: 19.8 km/h 0.0 km/h 6.6 km/h
Rafales: 21.6 km/h - -
Vent:- - WSW
Pression: 1012.1 hPa 1010.0 hPa -
Précipitation: 2.8 mm    
Historical Graphs
 
 
Données statistiques pour Juillet 11, 2017
Heure Température Point de rosée Pression Vent Vitesse du vent Refales Humidité Pluie (taux horaire)
00:02 16.0 °C 14.0 °C 1010.0 hPa SW 6.4 km/h 15.4 km/h 87 % 0.0 mm
00:07 16.0 °C 14.0 °C 1010.0 hPa WSW 7.6 km/h 15.4 km/h 87 % 0.0 mm
00:12 16.0 °C 14.0 °C 1010.0 hPa WSW 9.0 km/h 16.9 km/h 87 % 0.0 mm
00:17 16.0 °C 14.0 °C 1010.0 hPa SSW 9.3 km/h 16.9 km/h 87 % 0.0 mm
00:22 16.0 °C 14.0 °C 1010.0 hPa WSW 5.5 km/h 17.2 km/h 87 % 0.0 mm
00:27 16.0 °C 14.0 °C 1010.0 hPa SSW 6.4 km/h 17.2 km/h 87 % 0.0 mm
00:32 16.0 °C 14.0 °C 1010.0 hPa SSW 10.5 km/h 14.0 km/h 87 % 0.0 mm
00:37 16.0 °C 14.0 °C 1010.0 hPa SW 9.3 km/h 18.0 km/h 87 % 0.0 mm
00:42 15.8 °C 14.0 °C 1010.0 hPa WSW 9.7 km/h 18.0 km/h 92 % 0.0 mm
00:47 15.8 °C 14.0 °C 1010.0 hPa WSW 9.7 km/h 16.3 km/h 92 % 0.0 mm
00:53 15.8 °C 14.0 °C 1010.0 hPa WSW 7.9 km/h 16.9 km/h 92 % 0.0 mm
00:58 15.6 °C 15.0 °C 1010.0 hPa WSW 7.9 km/h 16.9 km/h 93 % 0.0 mm
01:03 15.6 °C 15.0 °C 1010.0 hPa WSW 9.7 km/h 15.8 km/h 93 % 0.0 mm
01:08 15.5 °C 15.0 °C 1010.0 hPa SW 6.9 km/h 15.8 km/h 93 % 0.0 mm
01:13 15.4 °C 14.0 °C 1010.0 hPa WSW 10.5 km/h 12.2 km/h 93 % 0.0 mm
01:18 15.4 °C 14.0 °C 1010.0 hPa WSW 6.4 km/h 10.5 km/h 93 % 0.0 mm
01:23 15.4 °C 14.0 °C 1010.0 hPa West 10.1 km/h 12.2 km/h 93 % 0.0 mm
01:28 15.4 °C 14.0 °C 1010.0 hPa WSW 10.1 km/h 14.8 km/h 93 % 0.0 mm
01:33 15.4 °C 14.0 °C 1010.0 hPa West 7.9 km/h 14.8 km/h 93 % 0.0 mm
01:38 15.4 °C 14.0 °C 1010.0 hPa WSW 6.1 km/h 13.7 km/h 93 % 0.0 mm
01:43 15.2 °C 14.0 °C 1010.0 hPa WSW 4.0 km/h 13.7 km/h 93 % 0.0 mm
01:48 15.2 °C 14.0 °C 1010.0 hPa WSW 9.3 km/h 11.6 km/h 93 % 0.0 mm
01:53 15.2 °C 14.0 °C 1010.0 hPa SSW 10.5 km/h 13.7 km/h 94 % 0.0 mm
01:58 15.2 °C 14.0 °C 1010.0 hPa WSW 6.4 km/h 15.8 km/h 94 % 0.0 mm
02:03 15.2 °C 14.0 °C 1010.0 hPa WSW 9.7 km/h 15.8 km/h 94 % 0.0 mm
02:08 15.2 °C 14.0 °C 1010.0 hPa West 9.3 km/h 13.7 km/h 94 % 0.0 mm
02:13 15.2 °C 14.0 °C 1010.0 hPa WNW 6.4 km/h 12.2 km/h 94 % 0.0 mm
02:18 15.2 °C 14.0 °C 1010.0 hPa WSW 8.7 km/h 11.9 km/h 94 % 0.0 mm
02:23 15.2 °C 14.0 °C 1010.0 hPa WSW 10.5 km/h 11.9 km/h 94 % 0.0 mm
02:28 15.2 °C 14.0 °C 1010.0 hPa SSW 8.7 km/h 14.0 km/h 94 % 0.0 mm
02:33 15.2 °C 14.0 °C 1010.0 hPa WSW 6.1 km/h 16.3 km/h 94 % 0.0 mm
02:39 15.2 °C 14.0 °C 1010.0 hPa WSW 12.2 km/h 16.3 km/h 94 % 0.0 mm
02:44 15.2 °C 14.0 °C 1010.0 hPa West 9.7 km/h 14.0 km/h 94 % 0.0 mm
02:49 15.1 °C 14.0 °C 1010.0 hPa WSW 13.0 km/h 13.7 km/h 94 % 0.0 mm
02:54 15.1 °C 14.0 °C 1010.0 hPa WSW 9.0 km/h 13.7 km/h 94 % 0.0 mm
02:59 15.0 °C 14.0 °C 1010.0 hPa WSW 9.0 km/h 13.7 km/h 94 % 0.0 mm
03:04 15.0 °C 14.0 °C 1010.0 hPa WSW 8.7 km/h 13.7 km/h 95 % 0.0 mm
03:09 15.0 °C 14.0 °C 1010.0 hPa West 10.5 km/h 12.2 km/h 95 % 0.0 mm
03:14 15.0 °C 14.0 °C 1010.0 hPa SW 7.6 km/h 12.2 km/h 95 % 0.0 mm
03:19 15.0 °C 14.0 °C 1010.0 hPa SW 11.6 km/h 12.2 km/h 95 % 0.0 mm
03:24 15.0 °C 14.0 °C 1010.0 hPa WSW 8.7 km/h 12.2 km/h 95 % 0.0 mm
03:29 15.0 °C 14.0 °C 1010.0 hPa WSW 5.5 km/h 11.1 km/h 95 % 0.0 mm
03:34 15.0 °C 14.0 °C 1010.0 hPa WSW 7.9 km/h 11.6 km/h 95 % 0.0 mm
03:39 15.0 °C 14.0 °C 1010.0 hPa WSW 8.7 km/h 13.0 km/h 95 % 0.0 mm
03:44 15.0 °C 14.0 °C 1010.0 hPa WSW 6.1 km/h 13.0 km/h 95 % 0.0 mm
03:49 15.0 °C 14.0 °C 1010.0 hPa WSW 6.9 km/h 11.6 km/h 95 % 0.0 mm
03:54 15.0 °C 14.0 °C 1010.0 hPa SW 2.1 km/h 11.6 km/h 95 % 0.0 mm
03:59 15.0 °C 14.0 °C 1010.0 hPa WSW 9.0 km/h 12.2 km/h 95 % 0.0 mm
04:04 15.0 °C 14.0 °C 1010.0 hPa WSW 9.0 km/h 12.2 km/h 95 % 0.0 mm
04:09 15.0 °C 14.0 °C 1010.0 hPa SW 4.0 km/h 9.7 km/h 95 % 0.0 mm
04:15 15.0 °C 14.0 °C 1010.0 hPa WSW 9.0 km/h 9.7 km/h 95 % 0.0 mm
04:20 15.0 °C 14.0 °C 1010.0 hPa Calm   11.9 km/h 95 % 0.0 mm
04:25 15.0 °C 14.0 °C 1010.0 hPa SSW 4.3 km/h 11.9 km/h 95 % 0.0 mm
04:30 15.0 °C 14.0 °C 1010.0 hPa West 4.3 km/h 11.6 km/h 95 % 0.0 mm
04:35 15.0 °C 14.0 °C 1010.0 hPa Calm   10.1 km/h 95 % 0.0 mm
04:40 14.9 °C 15.0 °C 1010.0 hPa WSW 1.8 km/h 10.1 km/h 96 % 0.0 mm
04:45 14.9 °C 15.0 °C 1010.0 hPa Calm   8.7 km/h 96 % 0.0 mm
04:50 14.8 °C 14.0 °C 1010.0 hPa Calm   6.9 km/h 96 % 0.0 mm
04:55 14.7 °C 14.0 °C 1010.0 hPa SSW 6.4 km/h 6.4 km/h 96 % 0.0 mm
05:00 14.7 °C 14.0 °C 1010.0 hPa Calm   6.9 km/h 96 % 0.0 mm
05:05 14.7 °C 14.0 °C 1010.0 hPa West 5.0 km/h 6.9 km/h 96 % 0.0 mm
05:10 14.6 °C 14.0 °C 1010.0 hPa Calm   7.6 km/h 96 % 0.0 mm
05:15 14.6 °C 14.0 °C 1010.0 hPa Calm   7.6 km/h 96 % 0.0 mm
05:20 14.5 °C 14.0 °C 1010.0 hPa SSW 4.3 km/h 6.4 km/h 96 % 0.0 mm
05:25 14.5 °C 14.0 °C 1010.0 hPa SW 6.4 km/h 10.1 km/h 96 % 0.0 mm
05:30 14.5 °C 14.0 °C 1011.1 hPa WSW 11.6 km/h 11.6 km/h 96 % 0.0 mm
05:32 14.6 °C 14.0 °C 1011.1 hPa Calm   11.6 km/h 96 % 0.0 mm
05:37 14.5 °C 14.0 °C 1011.1 hPa WSW 5.0 km/h 11.6 km/h 96 % 0.0 mm
05:42 14.5 °C 14.0 °C 1011.1 hPa Calm   10.5 km/h 96 % 0.0 mm
05:47 14.5 °C 14.0 °C 1010.0 hPa SW 9.0 km/h 9.0 km/h 96 % 0.0 mm
05:52 14.5 °C 14.0 °C 1010.0 hPa SW 5.0 km/h 9.0 km/h 96 % 0.0 mm
05:57 14.5 °C 14.0 °C 1010.0 hPa Calm   7.6 km/h 96 % 0.0 mm
06:02 14.5 °C 14.0 °C 1011.1 hPa Calm   8.7 km/h 97 % 0.0 mm
06:07 14.5 °C 14.0 °C 1011.1 hPa Calm   8.7 km/h 97 % 0.0 mm
06:12 14.6 °C 14.0 °C 1011.1 hPa WSW 9.3 km/h 9.7 km/h 97 % 0.0 mm
06:17 14.7 °C 14.0 °C 1011.1 hPa SSW 9.0 km/h 9.7 km/h 97 % 0.0 mm
06:22 14.9 °C 15.0 °C 1011.1 hPa WSW 4.3 km/h 10.5 km/h 97 % 0.0 mm
06:27 15.1 °C 15.0 °C 1011.1 hPa SSW 9.7 km/h 11.9 km/h 97 % 0.0 mm
06:32 15.3 °C 15.0 °C 1011.1 hPa WSW 5.5 km/h 11.9 km/h 97 % 0.0 mm
06:37 15.4 °C 15.0 °C 1011.1 hPa Calm   9.7 km/h 97 % 0.0 mm
06:42 15.4 °C 15.0 °C 1011.1 hPa WSW 7.9 km/h 12.6 km/h 97 % 0.0 mm
06:47 15.5 °C 15.0 °C 1011.1 hPa SW 10.5 km/h 13.0 km/h 97 % 0.0 mm
06:52 15.5 °C 15.0 °C 1011.1 hPa WSW 6.1 km/h 13.0 km/h 97 % 0.0 mm
06:57 15.6 °C 15.0 °C 1011.1 hPa WSW 7.9 km/h 11.9 km/h 97 % 0.0 mm
07:02 15.7 °C 15.0 °C 1011.1 hPa WSW 10.5 km/h 12.2 km/h 97 % 0.0 mm
07:07 15.8 °C 15.0 °C 1011.1 hPa WSW 9.7 km/h 14.0 km/h 96 % 0.0 mm
07:12 15.9 °C 16.0 °C 1011.1 hPa SSW 7.9 km/h 14.0 km/h 96 % 0.0 mm
07:17 16.0 °C 16.0 °C 1011.1 hPa West 8.7 km/h 11.6 km/h 96 % 0.0 mm
07:22 16.0 °C 16.0 °C 1011.1 hPa WSW 9.7 km/h 11.6 km/h 96 % 0.0 mm
07:27 16.2 °C 16.0 °C 1011.1 hPa WSW 9.0 km/h 11.6 km/h 96 % 0.0 mm
07:33 16.2 °C 16.0 °C 1011.1 hPa SW 5.8 km/h 11.6 km/h 96 % 0.0 mm
07:38 16.3 °C 16.0 °C 1011.1 hPa SSW 12.2 km/h 12.2 km/h 95 % 0.0 mm
07:43 16.3 °C 16.0 °C 1011.1 hPa Calm   12.2 km/h 95 % 0.0 mm
07:48 16.3 °C 16.0 °C 1011.1 hPa SW 10.1 km/h 12.6 km/h 95 % 0.0 mm
07:53 16.3 °C 16.0 °C 1011.1 hPa WSW 11.1 km/h 16.6 km/h 95 % 0.0 mm
07:58 16.3 °C 16.0 °C 1011.1 hPa SSW 9.0 km/h 16.6 km/h 95 % 0.0 mm
08:03 16.3 °C 16.0 °C 1010.0 hPa SW 7.9 km/h 15.1 km/h 95 % 0.0 mm
08:08 16.3 °C 16.0 °C 1010.0 hPa SSW 14.0 km/h 16.6 km/h 95 % 0.0 mm
08:13 16.3 °C 16.0 °C 1010.0 hPa SW 8.7 km/h 16.6 km/h 95 % 0.0 mm
08:18 16.3 °C 16.0 °C 1011.1 hPa WSW 10.1 km/h 15.4 km/h 95 % 0.0 mm
08:23 16.3 °C 16.0 °C 1011.1 hPa WSW 7.6 km/h 15.4 km/h 95 % 0.0 mm
08:28 16.7 °C 16.0 °C 1011.1 hPa SW 5.8 km/h 13.7 km/h 94 % 0.0 mm
08:33 16.7 °C 16.0 °C 1010.0 hPa WSW 4.3 km/h 13.0 km/h 93 % 0.0 mm
08:38 16.8 °C 16.0 °C 1010.0 hPa West 7.9 km/h 13.0 km/h 93 % 0.0 mm
08:43 16.9 °C 16.0 °C 1010.0 hPa WSW 6.1 km/h 11.9 km/h 93 % 0.0 mm
08:48 17.0 °C 16.0 °C 1011.1 hPa SW 10.1 km/h 11.9 km/h 93 % 0.0 mm
08:53 17.1 °C 16.0 °C 1011.1 hPa WSW 6.4 km/h 12.2 km/h 93 % 0.0 mm
08:59 17.5 °C 17.0 °C 1011.1 hPa WSW 2.6 km/h 13.7 km/h 93 % 0.0 mm
09:03 18.4 °C 17.0 °C 1011.1 hPa SSW 13.7 km/h 15.4 km/h 92 % 0.0 mm
09:08 18.9 °C 18.0 °C 1011.1 hPa SSW 7.9 km/h 15.8 km/h 92 % 0.0 mm
09:14 18.9 °C 18.0 °C 1011.1 hPa SSW 10.5 km/h 15.8 km/h 92 % 0.0 mm
09:19 18.9 °C 18.0 °C 1011.1 hPa WSW 6.1 km/h 13.7 km/h 92 % 0.0 mm
09:24 18.9 °C 18.0 °C 1011.1 hPa SSW 13.7 km/h 13.7 km/h 92 % 0.0 mm
09:29 18.9 °C 18.0 °C 1011.1 hPa WSW 10.1 km/h 13.7 km/h 92 % 0.0 mm
09:34 18.9 °C 18.0 °C 1011.1 hPa WSW 10.1 km/h 13.7 km/h 92 % 0.0 mm
09:39 18.9 °C 18.0 °C 1011.1 hPa South 2.6 km/h 14.3 km/h 92 % 0.0 mm
09:44 18.9 °C 18.0 °C 1011.1 hPa West 12.2 km/h 16.3 km/h 92 % 0.0 mm
09:49 18.9 °C 18.0 °C 1011.1 hPa WSW 12.6 km/h 16.6 km/h 92 % 0.0 mm
09:54 18.9 °C 18.0 °C 1011.1 hPa WSW 4.7 km/h 14.0 km/h 92 % 0.0 mm
09:59 18.9 °C 18.0 °C 1011.1 hPa WSW 9.7 km/h 15.8 km/h 92 % 0.0 mm
10:04 18.9 °C 18.0 °C 1011.1 hPa South 9.7 km/h 15.8 km/h 92 % 0.0 mm
10:09 18.9 °C 18.0 °C 1011.1 hPa SW 11.1 km/h 12.6 km/h 92 % 0.0 mm
10:14 18.9 °C 18.0 °C 1011.1 hPa SW 13.0 km/h 13.0 km/h 92 % 0.0 mm
10:19 18.9 °C 18.0 °C 1011.1 hPa West 13.7 km/h 15.1 km/h 92 % 0.0 mm
10:24 18.9 °C 18.0 °C 1011.1 hPa SSW 5.0 km/h 15.1 km/h 92 % 0.0 mm
10:29 18.9 °C 18.0 °C 1011.1 hPa WSW 12.6 km/h 16.6 km/h 92 % 0.0 mm
10:34 18.9 °C 18.0 °C 1011.1 hPa South 13.0 km/h 16.6 km/h 92 % 0.0 mm
10:39 18.9 °C 18.0 °C 1011.1 hPa SW 8.7 km/h 15.4 km/h 92 % 0.0 mm
10:44 18.9 °C 18.0 °C 1012.1 hPa WSW 13.0 km/h 15.4 km/h 92 % 0.0 mm
10:49 18.9 °C 18.0 °C 1012.1 hPa SSW 11.6 km/h 13.0 km/h 92 % 0.0 mm
10:54 18.9 °C 18.0 °C 1012.1 hPa WSW 8.7 km/h 16.3 km/h 92 % 0.0 mm
10:59 18.9 °C 18.0 °C 1011.1 hPa SSW 6.4 km/h 16.3 km/h 92 % 0.0 mm
11:02 18.9 °C 18.0 °C 1011.1 hPa West 3.2 km/h 16.3 km/h 92 % 0.0 mm
11:07 18.9 °C 18.0 °C 1011.1 hPa SSW 9.0 km/h 15.4 km/h 92 % 0.0 mm
11:12 18.9 °C 18.0 °C 1011.1 hPa SSW 8.7 km/h 16.3 km/h 92 % 0.0 mm
11:17 18.9 °C 18.0 °C 1011.1 hPa WSW 9.3 km/h 16.3 km/h 92 % 0.0 mm
11:22 18.9 °C 18.0 °C 1011.1 hPa WSW 19.8 km/h 21.6 km/h 92 % 0.0 mm
11:27 18.9 °C 18.0 °C 1011.1 hPa WSW 9.0 km/h 21.6 km/h 92 % 0.0 mm
11:33 18.9 °C 18.0 °C 1011.1 hPa SW 9.7 km/h 17.2 km/h 92 % 0.0 mm
11:38 18.9 °C 18.0 °C 1011.1 hPa SSW 8.7 km/h 16.3 km/h 92 % 0.0 mm
11:43 18.9 °C 18.0 °C 1011.1 hPa SW 13.0 km/h 16.3 km/h 92 % 0.0 mm
11:48 18.9 °C 18.0 °C 1011.1 hPa SW 10.1 km/h 15.1 km/h 92 % 0.0 mm
11:53 18.9 °C 18.0 °C 1011.1 hPa South 11.1 km/h 19.1 km/h 92 % 0.0 mm
11:58 18.9 °C 18.0 °C 1011.1 hPa West 13.7 km/h 19.1 km/h 92 % 0.0 mm
12:03 18.9 °C 18.0 °C 1011.1 hPa SSW 14.0 km/h 16.6 km/h 92 % 0.0 mm
12:08 18.9 °C 18.0 °C 1011.1 hPa SW 10.1 km/h 16.6 km/h 92 % 0.0 mm
12:13 18.9 °C 18.0 °C 1011.1 hPa West 11.9 km/h 16.6 km/h 92 % 0.0 mm
12:18 18.9 °C 18.0 °C 1011.1 hPa SW 6.1 km/h 19.5 km/h 92 % 0.0 mm
12:23 18.9 °C 18.0 °C 1011.1 hPa SSW 11.9 km/h 19.5 km/h 92 % 0.0 mm
12:28 18.9 °C 18.0 °C 1011.1 hPa SW 11.6 km/h 14.0 km/h 92 % 0.0 mm
12:33 18.9 °C 18.0 °C 1011.1 hPa SSW 10.5 km/h 15.4 km/h 92 % 0.0 mm
12:38 18.9 °C 18.0 °C 1011.1 hPa WSW 6.9 km/h 19.8 km/h 92 % 0.0 mm
12:43 18.9 °C 18.0 °C 1011.1 hPa WSW 9.3 km/h 19.8 km/h 92 % 0.0 mm
12:48 18.9 °C 18.0 °C 1011.1 hPa SW 11.9 km/h 14.3 km/h 92 % 0.0 mm
12:53 18.9 °C 18.0 °C 1011.1 hPa WSW 11.9 km/h 16.3 km/h 92 % 0.0 mm
12:58 18.9 °C 18.0 °C 1011.1 hPa West 13.0 km/h 16.3 km/h 92 % 0.0 mm
13:03 18.9 °C 18.0 °C 1012.1 hPa WSW 12.2 km/h 17.7 km/h 92 % 0.0 mm
13:08 18.9 °C 18.0 °C 1012.1 hPa WSW 10.5 km/h 17.7 km/h 92 % 0.0 mm
13:13 18.9 °C 18.0 °C 1012.1 hPa SW 9.3 km/h 16.3 km/h 92 % 0.0 mm
13:18 18.9 °C 18.0 °C 1012.1 hPa WSW 5.8 km/h 14.0 km/h 92 % 0.0 mm
13:23 18.9 °C 18.0 °C 1012.1 hPa WSW 9.3 km/h 14.0 km/h 92 % 0.0 mm
13:28 18.9 °C 18.0 °C 1012.1 hPa SSW 6.4 km/h 14.0 km/h 92 % 0.0 mm
13:33 18.9 °C 18.0 °C 1012.1 hPa SW 4.7 km/h 14.0 km/h 92 % 0.0 mm
13:38 18.9 °C 18.0 °C 1012.1 hPa SSW 11.6 km/h 14.0 km/h 92 % 0.0 mm
13:43 18.9 °C 18.0 °C 1012.1 hPa SSW 11.6 km/h 15.4 km/h 92 % 0.0 mm
13:49 18.9 °C 18.0 °C 1011.1 hPa WSW 9.3 km/h 16.3 km/h 92 % 0.0 mm
13:54 18.9 °C 18.0 °C 1011.1 hPa WSW 6.9 km/h 16.6 km/h 92 % 0.0 mm
13:59 18.9 °C 18.0 °C 1011.1 hPa WSW 9.0 km/h 16.6 km/h 92 % 0.0 mm
14:04 18.9 °C 18.0 °C 1011.1 hPa WSW 10.5 km/h 17.2 km/h 92 % 0.0 mm
14:09 18.9 °C 18.0 °C 1011.1 hPa WSW 10.1 km/h 17.2 km/h 92 % 0.0 mm
14:14 18.9 °C 18.0 °C 1011.1 hPa WSW 4.7 km/h 15.4 km/h 92 % 0.0 mm
14:19 18.9 °C 18.0 °C 1011.1 hPa WSW 4.7 km/h 15.4 km/h 92 % 0.0 mm
14:24 18.9 °C 18.0 °C 1011.1 hPa WSW 10.5 km/h 13.7 km/h 92 % 0.0 mm
14:29 18.9 °C 18.0 °C 1011.1 hPa SSW 5.5 km/h 13.0 km/h 92 % 0.0 mm
14:34 18.9 °C 18.0 °C 1011.1 hPa WSW 10.5 km/h 15.8 km/h 92 % 0.0 mm
14:39 18.9 °C 18.0 °C 1011.1 hPa WSW 1.4 km/h 15.8 km/h 92 % 0.0 mm
14:44 18.9 °C 18.0 °C 1011.1 hPa WSW 8.7 km/h 12.2 km/h 92 % 0.0 mm
14:49 18.9 °C 18.0 °C 1011.1 hPa SW 4.0 km/h 11.6 km/h 92 % 0.0 mm
14:54 18.9 °C 18.0 °C 1011.1 hPa SW 11.6 km/h 12.6 km/h 92 % 0.0 mm
14:59 18.9 °C 18.0 °C 1011.1 hPa West 15.1 km/h 15.1 km/h 92 % 0.0 mm
15:04 18.9 °C 18.0 °C 1011.1 hPa SW 2.1 km/h 15.1 km/h 92 % 0.0 mm
15:09 18.9 °C 18.0 °C 1011.1 hPa West 9.3 km/h 13.0 km/h 92 % 0.0 mm
15:14 18.9 °C 18.0 °C 1011.1 hPa SW 6.4 km/h 17.7 km/h 92 % 0.0 mm
15:19 18.9 °C 18.0 °C 1011.1 hPa West 12.2 km/h 17.7 km/h 92 % 0.0 mm
15:24 18.9 °C 18.0 °C 1011.1 hPa South 10.5 km/h 16.3 km/h 92 % 0.0 mm
15:29 18.9 °C 18.0 °C 1011.1 hPa WSW 9.7 km/h 13.0 km/h 92 % 0.0 mm
15:34 18.9 °C 18.0 °C 1011.1 hPa WSW 2.1 km/h 17.7 km/h 92 % 0.0 mm
15:39 18.9 °C 18.0 °C 1011.1 hPa SW 9.0 km/h 17.7 km/h 92 % 0.0 mm
15:44 18.9 °C 18.0 °C 1011.1 hPa SSW 7.6 km/h 13.7 km/h 92 % 0.0 mm
15:49 18.9 °C 18.0 °C 1011.1 hPa WSW 9.0 km/h 14.0 km/h 92 % 0.0 mm
15:54 19.8 °C 15.0 °C 1011.1 hPa SW 9.3 km/h 14.0 km/h 73 % 0.0 mm
15:59 19.4 °C 15.0 °C 1011.1 hPa SSW 5.5 km/h 13.7 km/h 76 % 0.0 mm
16:05 19.2 °C 16.0 °C 1011.1 hPa SSW 7.6 km/h 10.5 km/h 79 % 0.0 mm
16:09 18.9 °C 16.0 °C 1011.1 hPa Calm   10.5 km/h 81 % 0.0 mm
16:14 18.4 °C 15.0 °C 1012.1 hPa WSW 15.8 km/h 15.8 km/h 83 % 0.0 mm
16:20 18.0 °C 16.0 °C 1012.1 hPa SW 9.3 km/h 16.9 km/h 87 % 0.0 mm
16:25 18.1 °C 16.0 °C 1012.1 hPa WSW 8.7 km/h 16.9 km/h 89 % 0.8 mm
16:30 18.4 °C 17.0 °C 1011.1 hPa WSW 8.7 km/h 12.2 km/h 91 % 0.8 mm
16:35 18.8 °C 17.0 °C 1011.1 hPa West 9.7 km/h 10.1 km/h 91 % 1.0 mm
16:40 18.6 °C 17.0 °C 1011.1 hPa WSW 9.7 km/h 14.0 km/h 90 % 1.0 mm
16:45 18.8 °C 17.0 °C 1011.1 hPa WSW 9.7 km/h 14.0 km/h 90 % 1.0 mm
16:50 19.0 °C 17.0 °C 1011.1 hPa SW 6.4 km/h 13.7 km/h 90 % 1.0 mm
16:55 19.1 °C 18.0 °C 1011.1 hPa SW 5.0 km/h 10.5 km/h 91 % 1.0 mm
17:00 19.6 °C 18.0 °C 1011.1 hPa SSW 7.2 km/h 10.5 km/h 90 % 1.0 mm
17:05 20.3 °C 19.0 °C 1011.1 hPa SSW 6.4 km/h 9.7 km/h 91 % 1.0 mm
17:08 20.3 °C 19.0 °C 1011.1 hPa SW 5.5 km/h 10.5 km/h 89 % 1.0 mm
17:13 20.2 °C 18.0 °C 1011.1 hPa SSW 5.0 km/h 10.5 km/h 88 % 1.3 mm
17:18 21.1 °C 19.0 °C 1010.0 hPa Calm   10.1 km/h 88 % 1.3 mm
17:19 21.4 °C 19.0 °C 1010.0 hPa SSW 6.4 km/h 10.1 km/h 88 % 0.5 mm
17:24 21.8 °C 19.0 °C 1010.0 hPa SSW 5.0 km/h 6.9 km/h 86 % 0.5 mm
17:29 22.2 °C 20.0 °C 1011.1 hPa Calm   6.9 km/h 84 % 0.5 mm
17:34 21.7 °C 18.0 °C 1011.1 hPa WSW 6.9 km/h 10.5 km/h 80 % 0.3 mm
17:40 21.7 °C 18.0 °C 1011.1 hPa SSW 5.8 km/h 14.3 km/h 79 % 0.3 mm
17:45 21.8 °C 18.0 °C 1011.1 hPa WSW 10.1 km/h 14.3 km/h 78 % 0.3 mm
17:50 21.2 °C 17.0 °C 1011.1 hPa WSW 9.3 km/h 10.5 km/h 75 % 0.3 mm
17:55 20.9 °C 17.0 °C 1011.1 hPa Calm   10.1 km/h 76 % 0.3 mm
18:00 20.7 °C 17.0 °C 1011.1 hPa Calm   7.6 km/h 77 % 0.3 mm
18:05 20.8 °C 17.0 °C 1011.1 hPa Calm   6.9 km/h 79 % 0.3 mm
18:10 20.7 °C 17.0 °C 1011.1 hPa Calm   8.7 km/h 78 % 0.0 mm
18:15 20.7 °C 17.0 °C 1011.1 hPa Calm   8.7 km/h 78 % 0.0 mm
18:20 20.7 °C 17.0 °C 1011.1 hPa West 11.6 km/h 11.6 km/h 78 % 0.0 mm
18:25 20.7 °C 17.0 °C 1011.1 hPa SW 6.9 km/h 11.9 km/h 78 % 0.0 mm
18:30 20.7 °C 17.0 °C 1011.1 hPa WSW 9.0 km/h 12.6 km/h 78 % 0.0 mm
18:35 20.7 °C 17.0 °C 1011.1 hPa WSW 6.9 km/h 12.6 km/h 78 % 0.0 mm
18:40 20.7 °C 17.0 °C 1011.1 hPa West 7.2 km/h 10.5 km/h 78 % 0.0 mm
18:45 20.7 °C 17.0 °C 1011.1 hPa Calm   12.2 km/h 78 % 0.0 mm
18:50 20.7 °C 17.0 °C 1011.1 hPa Calm   12.2 km/h 78 % 0.0 mm
18:55 20.7 °C 17.0 °C 1011.1 hPa SW 5.5 km/h 10.5 km/h 78 % 0.0 mm
19:00 20.7 °C 17.0 °C 1011.1 hPa Calm   6.4 km/h 78 % 0.0 mm
19:05 20.7 °C 17.0 °C 1011.1 hPa WSW 8.7 km/h 8.7 km/h 78 % 0.0 mm
19:10 20.7 °C 17.0 °C 1011.1 hPa Calm   8.7 km/h 78 % 0.0 mm
19:15 20.7 °C 17.0 °C 1011.1 hPa West 16.9 km/h 17.7 km/h 78 % 0.0 mm
19:20 20.7 °C 17.0 °C 1011.1 hPa West 9.7 km/h 20.9 km/h 78 % 0.0 mm
19:25 20.7 °C 17.0 °C 1011.1 hPa West 12.6 km/h 20.9 km/h 78 % 0.0 mm
19:31 20.7 °C 17.0 °C 1011.1 hPa West 9.0 km/h 16.6 km/h 78 % 0.0 mm
19:36 20.7 °C 17.0 °C 1011.1 hPa West 9.3 km/h 20.9 km/h 78 % 0.0 mm
19:41 20.7 °C 17.0 °C 1011.1 hPa West 9.3 km/h 20.9 km/h 78 % 0.0 mm
19:46 20.7 °C 17.0 °C 1011.1 hPa WSW 11.9 km/h 18.3 km/h 78 % 0.0 mm
19:51 20.7 °C 17.0 °C 1011.1 hPa WSW 9.7 km/h 18.3 km/h 78 % 0.0 mm
19:56 20.7 °C 17.0 °C 1011.1 hPa West 9.3 km/h 13.0 km/h 78 % 0.0 mm
20:01 20.7 °C 17.0 °C 1011.1 hPa WSW 9.3 km/h 11.9 km/h 78 % 0.0 mm
20:06 20.7 °C 17.0 °C 1011.1 hPa WSW 9.3 km/h 12.6 km/h 78 % 0.0 mm
20:11 18.5 °C 13.0 °C 1011.1 hPa West 5.8 km/h 12.6 km/h 71 % 0.0 mm
20:16 18.0 °C 13.0 °C 1011.1 hPa West 9.0 km/h 10.5 km/h 74 % 0.0 mm
20:21 17.6 °C 14.0 °C 1011.1 hPa Calm   11.1 km/h 77 % 0.0 mm
20:26 17.3 °C 13.0 °C 1011.1 hPa West 9.7 km/h 13.0 km/h 78 % 0.0 mm
20:31 17.0 °C 13.0 °C 1010.0 hPa West 7.9 km/h 14.0 km/h 79 % 0.0 mm
20:36 16.7 °C 13.0 °C 1010.0 hPa West 5.8 km/h 14.0 km/h 81 % 0.0 mm
20:41 16.5 °C 14.0 °C 1010.0 hPa Calm   13.0 km/h 82 % 0.0 mm
20:46 16.3 °C 13.0 °C 1011.1 hPa Calm   6.4 km/h 83 % 0.0 mm
20:51 16.2 °C 14.0 °C 1011.1 hPa Calm   4.3 km/h 85 % 0.0 mm
20:56 16.1 °C 14.0 °C 1011.1 hPa Calm   4.3 km/h 86 % 0.0 mm
21:01 16.0 °C 14.0 °C 1011.1 hPa Calm   3.5 km/h 86 % 0.0 mm
21:06 15.9 °C 14.0 °C 1011.1 hPa Calm     87 % 0.0 mm
21:11 15.8 °C 14.0 °C 1011.1 hPa Calm     87 % 0.0 mm
21:16 15.7 °C 14.0 °C 1011.1 hPa Calm     88 % 0.0 mm
21:21 15.6 °C 14.0 °C 1011.1 hPa Calm     89 % 1.0 mm
21:26 15.6 °C 14.0 °C 1011.1 hPa Calm     90 % 1.0 mm
21:31 15.6 °C 14.0 °C 1011.1 hPa Calm     90 % 1.0 mm
21:36 15.6 °C 14.0 °C 1011.1 hPa Calm     91 % 1.0 mm
21:41 15.5 °C 14.0 °C 1011.1 hPa Calm     91 % 1.0 mm
21:46 15.5 °C 14.0 °C 1011.1 hPa Calm     91 % 1.0 mm
21:51 15.5 °C 14.0 °C 1011.1 hPa Calm     92 % 1.3 mm
21:56 15.5 °C 14.0 °C 1011.1 hPa Calm     92 % 1.3 mm
22:01 15.4 °C 14.0 °C 1010.0 hPa Calm     92 % 1.3 mm
22:06 15.4 °C 14.0 °C 1010.0 hPa Calm     92 % 1.3 mm
22:11 15.4 °C 14.0 °C 1010.0 hPa Calm     93 % 1.3 mm
22:16 15.3 °C 14.0 °C 1011.1 hPa Calm     93 % 1.3 mm
22:21 15.3 °C 14.0 °C 1011.1 hPa Calm     93 % 0.3 mm
22:26 15.3 °C 14.0 °C 1011.1 hPa Calm     93 % 0.3 mm
22:31 15.3 °C 14.0 °C 1011.1 hPa Calm     93 % 0.3 mm
22:36 15.3 °C 14.0 °C 1011.1 hPa Calm     94 % 0.3 mm
22:41 15.3 °C 14.0 °C 1011.1 hPa Calm     94 % 0.3 mm
22:46 15.3 °C 14.0 °C 1011.1 hPa Calm     94 % 0.3 mm
22:51 15.3 °C 14.0 °C 1011.1 hPa Calm     94 % 0.0 mm
22:56 15.3 °C 14.0 °C 1011.1 hPa Calm     94 % 0.0 mm
23:01 15.3 °C 14.0 °C 1011.1 hPa Calm     94 % 0.0 mm
23:06 15.3 °C 14.0 °C 1011.1 hPa Calm     94 % 0.0 mm
23:11 15.3 °C 14.0 °C 1011.1 hPa Calm     94 % 0.0 mm
23:16 15.3 °C 14.0 °C 1011.1 hPa Calm     94 % 0.0 mm
23:21 15.3 °C 15.0 °C 1011.1 hPa Calm     95 % 0.0 mm
23:26 15.3 °C 15.0 °C 1011.1 hPa Calm     95 % 0.0 mm
23:31 15.3 °C 15.0 °C 1011.1 hPa Calm     95 % 0.0 mm
23:36 15.2 °C 15.0 °C 1011.1 hPa Calm     95 % 0.0 mm
23:41 15.2 °C 15.0 °C 1011.1 hPa Calm     95 % 0.0 mm
23:46 15.2 °C 15.0 °C 1010.0 hPa East 1.8 km/h 1.8 km/h 95 % 0.0 mm
23:51 15.1 °C 14.0 °C 1010.0 hPa Calm   6.1 km/h 95 % 0.3 mm
23:56 15.1 °C 14.0 °C 1010.0 hPa Calm   6.1 km/h 95 % 0.3 mm
Le Gheer Warneton
Courtoisie de Weather Underground - 2.5 mb

Mise a jour : 18/12/2017 17:21:11
Généré par Cumulus 1.9.4 (1099)